KGXF Airport (Gila Bend Af Aux) Information

FAA: GXF - ICAO: KGXF

KGXF Airport Location

State Arizona
County Maricopa
City Gila Bend
KGXF Airport is 3 miles south of Gila Bend, AZ.
Latitude 32-53-16.2500N
Longitude 112-43-10.5950W
Elevation 883ft

KGXF Airport METARs

METAR KGXF 251758Z AUTO 18004KT 10SM CLR 29/13 A2984 RMK AO2 SLP094 T02890125 10292 20178 58009 $
Altimeter 29.84"
Temperature 28.9°C (84.0°F)
Wind 180° at 4KT
Clouds Skies are clear.
Visibility 10.0mi
Time observed: 2021-10-25T17:58:00Z

KGXF Airport Details

Status Operational
Activation July 1942
Ownership Military - Air Force
Usage Private
Chart PHOENIX
ATC on-site Yes
Beacon schedule sunset-sunrise
Beacon color clear green

KGXF Airport Contacts

Owner USAF
Owner address LUKE AFB, GLENDALE, AZ 85301
Owner phone N/A
Manager DIRECTOR, 56 RMO
Manager address 7101 JERSTAD, LUKE AFB, AZ 85309-1647
Manager phone 623-856-5855

KGXF Airport (Gila Bend Af Aux) Radio Frequencies

KGXF (Airport) Radio Frequencies

UNICOM N/A
Common traffic advisory frequency (CTAF) N/A